Tracking 31027 objects as of 19-Jul-2025
HD Live streaming from Space Station
objects crossing your sky now

COSMOS 1823 DEB

Track COSMOS 1823 DEB now!
10-day predictions


NORAD ID: 18757
Int'l Code: 1987-020AJ
Perigee: 1,044.7 km
Apogee: 1,206.7 km
Inclination: 73.7 °
Period: 107.7 minutes
Semi major axis: 7496 km
RCS: 0.0664 m2 (small)
Launch date: February 20, 1987
Source: Commonwealth of Independent States (former USSR) (CIS)
Launch site: PLESETSK MISSILE AND SPACE COMPLEX (PKMTR)

Note: This is SATELLITE DEBRIS
Your satellite tracking list
SES-6
Track 1 satellite(s)




NASA's NSSDC Master Catalog

Two Line Element Set (TLE):
1 18757U 87020AJ  25199.62895898  .00005910  00000-0  10946-1 0  9992
2 18757  73.7167  57.7326 0108094  94.3373 296.4432 13.37513644755398
Source of the keplerian elements: AFSPC